SL-8 DEB, 21407

Orbit data source: Space-Track

SL-8 DEB, 21407 is space debris in LEO originally from a launch on Tue, 12 Feb 1991 UTC launched from the Plesetsk Missile And Space Complex (PKMTR). Debris objects in space refer to the collection of defunct objects orbiting the Earth. Examples of debris include non-operational satellites, rocket bodies, and fragments generated from explosions, collisions, or faulty payload assembly.

Loading next visibility...
Identifier
21407, 1991-009BW
Orbit
LEO
Country
Flag of CISCIS
Related business
Manufacturer
Unknown
Mission
Spacecraft
Bus & Motor
Unknown
Mass
Unknown
Launch date (UTC)
1991-02-12 (35 years ago)
Launch vehicle
Unknown
Launch site
Plesetsk Missile And Space Complex (PKMTR)
Object type
Payload
Rocket body
Debris
Shape & HBR
Unknown shape, 0.1 m
Radar Cross Section
Medium (>0.1 m² and <1 m²)

Expand to show TLE details & history
Last TLE update: 3 days ago

TLE from 3 days ago
0 SL-8 DEB
1 21407U 91009BW  26170.45073931 -.00000025  00000-0 -83045-4 0  9994
2 21407  73.8533 343.6927 0178679  92.9264 295.6646 12.32638230586837
Epoch: 2026-06-19T10:49Z
TLE epoch observation values (Epoch: 2026-06-19T10:49:03.876Z)
Latitude
25.63037°
Longitude
-78.30807°
Altitude
1,481.366 km
Speed
7.152 km/s
True Right ascension
23h 26m 33s
True Declination
25° 30' 32"
Sunlit
Object was in daylight at epoch
Visualization orbit readout
Latitude
Unknown
Longitude
Unknown
Altitude
Unknown
Speed
Unknown
Apparent Right ascension
Unknown
Apparent Declination
Unknown
Sunlit
N/A
Visualization observer readout
Local Sidereal Time
23:27:18
Azimuth
Unknown
Elevation
Unknown
Doppler factor
Unknown
Orbital elements
Apogee altitude
1,677.24 km
Perigee altitude
1,394.428 km
Semi-major axis
7,913.971 km
Eccentricity
0.01787
Inclination
73.8533°
RAAN
343.6927°
Arg. of periapsis
92.9264°
True anomaly
293.8014°
Mean anomaly
295.6646°
Eccentric anomaly
294.73477°
Mean motion
3.08284 °/min
Orbital period
116.78 mins
BSTAR
-0.000083045
Loading maneuver chart data...
Computing Atmospheric mass density...
Loading historical data...
Loading historical data...
Loading historical data...
Loading historical data...
Loading historical data...
Loading historical data...
Loading historical data...

Documentation

Showing up to 5 results
|